Content
SEND FEEDBACK

Daily
Averages
Monthly
Summary
Canada

MONTREAL, QUEBEC


Home > North America > Canada > Quebec
Elevation: 118 feet     Latitude: 45 28N     Longitude: 073 45W

WEATHER
 
SELECT A DAY
Number of Records: 198,461;   Date Range: 1/1/95 - 8/20/14
 
SHARE

PRINT THIS DATA

[ ← Previous Day ]
WEATHER ALMANAC - MARCH 6, 2013
[ Next Day → ]
[ °C ]   °F
Weather ElementAverageHighLow
Temperature35.1 °F37.4 °F (10:00 am)33.8 °F (1:00 am)
Dewpoint29.2 °F30.2 °F (1:00 am)26.6 °F (9:00 pm)
Humidity78.1 %87 % (1:00 am)66 % (7:00 pm)
Barometer30.22 in30.26 in (7:00 pm)30.16 in (1:00 am)
Wind Speed18.6 mph25.3 mph (1:00 pm)
Wind Gust33.4 mph (6:00 pm)
Weather ElementAverage
Visibility15 mi
Wind DirectionNE (43.7 °)

Weather ElementTotal
Precipitation---
Heating Degree Days29.4 (Base 65)
Averaged from 27 records on March 6, 2013
WEATHER CONDITIONS BREAKOUT
WIND DIRECTION BREAKOUT
WEATHER BY HOUR - MARCH 6, 2013
[ °C ]   °F
Local TimeTemperatureDewpointHumidityBarometerVisibilityWind DirectionWind SpeedGust SpeedPrecipitationEventsConditions
1:00 AM34.0 °F30.0 °F79 %30.16 in15.0 miNE (40°)18.4 mphOvercast
1:00 AM33.8 °F30.2 °F87 %30.16 in15.0 miNE (40°)17.3 mph24.2 mphOvercast
2:00 AM33.8 °F30.2 °F87 %30.16 in15.0 miNE (40°)16.1 mphOvercast
3:00 AM33.8 °F30.2 °F87 %30.17 in15.0 miNE (40°)15.0 mphOvercast
4:00 AM33.8 °F30.2 °F87 %30.17 in15.0 miNE (40°)17.3 mphSnowLight Snow
5:00 AM33.8 °F30.2 °F87 %30.17 in15.0 miNE (40°)17.3 mph25.3 mphOvercast
6:00 AM33.8 °F30.2 °F87 %30.18 in15.0 miENE (60°)15.0 mph23.0 mphMostly Cloudy
7:00 AM35.0 °F29.0 °F71 %30.20 in15.0 miNE (50°)17.3 mphPartly Cloudy
7:00 AM33.8 °F28.4 °F81 %30.20 in15.0 miNE (50°)18.4 mphMostly Cloudy
8:00 AM35.6 °F30.2 °F81 %30.22 in15.0 miNE (50°)15.0 mph21.9 mphMostly Cloudy
9:00 AM35.6 °F30.2 °F81 %30.23 in15.0 miNE (50°)18.4 mphMostly Cloudy
10:00 AM37.4 °F30.2 °F75 %30.24 in15.0 miNE (50°)20.7 mph26.5 mphMostly Cloudy
11:00 AM35.6 °F30.2 °F81 %30.25 in15.0 miNE (40°)24.2 mphMostly Cloudy
12:00 PM35.6 °F30.2 °F81 %30.24 in15.0 miNE (50°)23.0 mph31.1 mphMostly Cloudy
1:00 PM36.0 °F29.0 °F68 %30.24 in15.0 miNE (40°)25.3 mphOvercast
1:00 PM37.4 °F30.2 °F75 %30.24 in15.0 miNE (40°)25.3 mphOvercast
2:00 PM37.4 °F28.4 °F70 %30.24 in15.0 miNE (40°)20.7 mph26.5 mphOvercast
3:00 PM37.4 °F28.4 °F70 %30.24 in15.0 miNNE (30°)23.0 mph29.9 mphOvercast
4:00 PM37.4 °F28.4 °F70 %30.24 in15.0 miNNE (30°)20.7 mphOvercast
5:00 PM35.6 °F28.4 °F75 %30.25 in15.0 miNE (40°)17.3 mph24.2 mphOvercast
6:00 PM35.6 °F28.4 °F75 %30.25 in15.0 miNE (40°)21.9 mph33.4 mphMostly Cloudy
7:00 PM35.0 °F28.0 °F66 %30.26 in15.0 miNE (40°)19.6 mphOvercast
7:00 PM35.6 °F28.4 °F75 %30.26 in15.0 miNE (40°)18.4 mph25.3 mphOvercast
8:00 PM33.8 °F28.4 °F81 %30.26 in15.0 miNE (50°)16.1 mphOvercast
9:00 PM33.8 °F26.6 °F75 %30.26 in15.0 miNE (50°)16.1 mph21.9 mphOvercast
10:00 PM33.8 °F28.4 °F81 %30.25 in15.0 miNE (50°)12.7 mph19.6 mphOvercast
11:00 PM33.8 °F26.6 °F75 %30.25 in15.0 miNE (50°)11.5 mph19.6 mphOvercast
Hourly data recorded from CYUL, located miles away from Montreal, Quebec







STORIES FROM OUR PARTNERS